Top Breeder Challenge - Training Toss 36

Station: Westley Joes Plaza - T Race

Distance: 87.107 Miles    

Release: 29-Nov-2019 12:15

Weather Release:    Arrival:

Wind at Release:     Wind at Arrival:

Temp at Release: °    Temp at Arrival: °

Lofts: 49

Birds: 84

Clocked: 83

Race Day 12/8 Weather permitting. Good Luck
Drops Pos Breeder Pigeon Name Color Sex Ent Arrival Speed To Win Elg PdB RaceSilverGold
1 Marty Macdonell - CA 1231-AU19-AUB BB H 1 14:10:58.70 1321.867 00:00:00 Yes
2 Alfonso Gonzalez - CA 27668-AU19-AA DCWF H 1 14:10:59.20 1321.773 00:00:00 Yes
3 Aka Loft - CA 8003-AU19-AA BB H 1 14:10:59.80 1321.659 00:00:01 Yes
3 John Perry - CA 90425-AU19-SOC BB H 1 14:10:59.80 1321.659 00:00:01 Yes
5 John Hedderson - CA 7608-AU19-FORT 7292x12128 BC H 1 14:11:00.10 1321.602 00:00:01 Yes
6 John V. Partridge - CA 1606-AU19-PASO BBWF H 1 14:11:00.20 1321.583 00:00:01 Yes
7 Gene Tenbrink - CA 0002-AU19-GENE BCP H 1 14:11:00.60 1321.507 00:00:02 Yes
8 Carlos Garibay Loft - CA 19327-AU19-OAK BBWF H 1 14:11:00.70 1321.488 00:00:02 Yes
9 John V. Partridge - CA 1618-AU19-PASO BB H 2 14:11:01.90 1321.260 00:00:03 Yes
10 Hinesboy Llc - GA 2420-IF19-FOYS CHOC H 1 14:11:02.20 1321.203 00:00:03 Yes
10 Alfonso Gonzalez - CA 1464-AU19-MTZ BC H 2 14:11:02.20 1321.203 00:00:03 Yes
12 Jack Lo - LA 0348-AU19-DELT BB H 1 14:11:02.30 1321.184 00:00:04 Yes
13 Juan Guerrero - CA 8436-AU19-AA BC H 1 14:11:02.90 1321.070 00:00:04 Yes
13 Dennis Doyle - TX 2037-AU19-LYND WEGGE/KLAAS III BB H 1 14:11:02.90 1321.070 00:00:04 Yes
15 John Karnofel - CA 0050-AU19-KFL Johns Delight BB H 1 14:11:03.30 1320.994 00:00:05 Yes
16 Quejado/Majelien - CA 0921-AU19-QUEJ VH-3 ARBERT-MAJED BC H 1 14:11:03.70 1320.918 00:00:05 Yes
17 Ron & Marge - CA 2061-AU19-MTZ BB H 1 14:11:04.10 1320.843 00:00:05 Yes
17 Tim Brandon - CA 0323-AU19-LAP BB H 1 14:11:04.10 1320.843 00:00:05 Yes
19 Ed Minvielle - LA 19260-AU19-A DCWF H 1 14:11:04.50 1320.767 00:00:06 Yes
20 John Perry - CA 90423-AU19-SOC BBWF H 2 14:11:05.10 1320.653 00:00:06 Yes
21 Norman Lewellen - HI 9176-AU19-NIC BB H 1 14:11:05.90 1320.501 00:00:07 Yes
21 Ganus Family Loft - IN 0747-AU19-GFL BB H 1 14:11:05.90 1320.501 00:00:07 Yes
23 Aka Loft - CA 8004-AU19-AA BC H 2 14:11:06.00 1320.482 00:00:07 Yes
24 Juan Guerrero - CA 90915-AU19-SOC RC H 2 14:11:06.30 1320.425 00:00:08 Yes
25 Tim Brandon - CA 0343-AU19-LAP BB H 2 14:11:06.90 1320.312 00:00:08 Yes
26 Gold Star Loft - CA 1643-AU19-STON BB H 1 14:11:07.30 1320.236 00:00:09 Yes
27 Drama Queen Loft - TX 0997-AU19-GCI BB H 1 14:11:07.60 1320.179 00:00:09 Yes
28 Pacos Lofts - CA 0941-AU19-PACO BC H 1 14:11:08.10 1320.084 00:00:09 Yes
28 Aka Loft - CA 8010-AU19-AA BB H 3 14:11:08.10 1320.084 00:00:09 Yes
30 Mc Knight & Mellinger - CA 1309-AU19-JEDD BB H 1 14:11:08.90 1319.933 00:00:10 Yes
30 Quejado/Majelien - CA 0939-AU19-QUEJ SJ-1 ARBERT-MAJED BCP H 2 14:11:08.90 1319.933 00:00:10 Yes
32 Hi-Cal Connection - CA 0711-AU19-HICA BB H 1 14:11:10.20 1319.687 00:00:11 Yes
33 Onlydaybird Syndicate - NV 14503-AU19-AA BB H 1 14:11:11.10 1319.516 00:00:12 Yes
34 Gold Star Loft - CA 1652-AU19-STON BC H 2 14:11:11.50 1319.440 00:00:13 Yes
35 Champion Loft - CA 0933-AU19-HAY BB H 1 14:11:15.60 1318.665 00:00:17 Yes
36 Juan Guerrero - CA 90907-AU19-SOC BBWF H 3 14:11:18.00 1318.211 00:00:19 Yes
37 Beto's Loft - CA 1640-AU19-MTZ BB H 1 14:12:26.20 1305.452 00:01:28 Yes
37 Partridge Family Loft - CA 1781-AU19-PASO BBWF H 1 14:12:26.20 1305.452 00:01:28 Yes
39 Mario Martinez Loft - CA 1947-AU19-ML 🕊🕊ZURA🕊🕊 BB H 1 14:12:29.70 1304.804 00:01:31 Yes
40 Sherwood Loft - UT 0559-AU19-UCA BCP H 1 14:12:31.10 1304.545 00:01:32 Yes
41 Sal Perez - CA 0017-AU19-SFR BCP H 1 14:12:37.60 1303.344 00:01:39 Yes
42 John Perry - CA 90454-AU19-SOC BB H 3 14:12:39.40 1303.011 00:01:41 Yes
42 Ed Minvielle - LA 19267-AU19-A DCP H 2 14:12:39.40 1303.011 00:01:41 Yes
44 Richard Norgrove - CA 90736-AU19-SOC Major Dan BB H 1 14:12:40.60 1302.790 00:01:42 Yes
45 Dehesa Valley Classic - CA 1670-AU19-SD 42106/14900 BB H 1 14:14:14.40 1285.709 00:03:16 Yes
46 Champion Loft - CA 0998-AU19-HAY BBWF H 2 14:14:38.50 1281.393 00:03:40 Yes
46 Mc Knight & Mellinger - CA 0707-AU19-JEDD BBWF H 2 14:14:38.50 1281.393 00:03:40 Yes
48 Thunder Birds Breeding Loft - TX 19060-AU19-WIN wild card BC H 1 14:14:39.00 1281.304 00:03:40 Yes
49 Nettis Family Loft - NJ 3066-AU19-BSC BC H 1 14:14:39.60 1281.197 00:03:41 Yes
50 Pacos Lofts - CA 0940-AU19-PACO BB H 2 14:14:40.40 1281.054 00:03:42 Yes
51 Tim Brandon - CA 0345-AU19-LAP BB H 3 14:14:40.90 1280.965 00:03:42 Yes
52 Burrill Family Loft - TX 18301-AU19-AA TEXAS CYCLONE II BB H 1 14:14:41.40 1280.876 00:03:43 Yes
53 3 Guys Entry - NV 0157-AU19-SBV DCWF H 1 14:14:42.60 1280.662 00:03:44 Yes
54 Larry Ault - CA 90104-AU19-SOC GRIZ H 1 14:14:43.40 1280.519 00:03:45 Yes
55 Larry Ault - CA 90437-AU19-SOC BB C 2 14:14:43.90 1280.430 00:03:45 Yes
56 Hinesboy Llc - GA 2416-IF19-FOYS DC H 2 14:14:44.40 1280.341 00:03:46 Yes
56 Carlos Garibay Loft - CA 0500-AU19-TCH BC H 2 14:14:44.40 1280.341 00:03:46 Yes
58 Ron & Marge - CA 2062-AU19-MTZ BBWF H 2 14:14:52.50 1278.899 00:03:54 Yes
59 3 Guys Entry - NV 0352-AU19-WOC DC H 2 14:15:09.70 1275.848 00:04:11 Yes
60 Gomez/Padilla/Navarez - CA 1650-AU19-MTZ BC H 1 14:17:26.70 1252.056 00:06:28 Yes
61 Danny Lum - HI 0070-AU19-PBM RC H 1 14:21:12.60 1214.706 00:10:14 Yes
62 Gomez/Padilla/Navarez - CA 0711-AU19-SFPC BB H 2 14:21:16.20 1214.128 00:10:17 Yes
63 We-Be-Two - CA 0906-AU19-WEBE 10K BB H 1 14:21:16.80 1214.032 00:10:18 Yes
64 Baldwin & Tillson - NC 9223-AU19-TENT KW-278 BB C 1 14:21:50.70 1208.625 00:10:52 Yes
65 John Hedderson - CA 7607-AU19-FORT 7292x12128 BB H 2 14:21:53.80 1208.133 00:10:55 Yes
66 Champion Loft - CA 0919-AU19-HAY BB H 3 14:22:24.70 1203.249 00:11:26 Yes
67 Dehesa Valley Classic - CA 19688-AU19-DEHE 280/0575 BB H 2 14:22:26.10 1203.029 00:11:27 Yes
68 Walter’s Loft - NJ 27502-AU19-ARPU Sidewinder BB H 1 14:22:37.70 1201.207 00:11:39 Yes
69 We-Be-Two - CA 0031-AU19-FVC1 SNOW ON MY PARTY BB H 2 14:22:54.70 1198.546 00:11:56 Yes
70 Gold Star Loft - CA 1651-AU19-STON BB H 3 14:22:58.50 1197.953 00:12:00 Yes
71 Fogcityloft - CA 0082-AU19-FOGC BCP H 1 14:22:59.20 1197.843 00:12:01 Yes
72 Barrera/Gonzalez/Nevarez - CA 2013-AU19-JBL BB H 1 14:24:35.50 1183.008 00:13:37 Yes
73 Onlydaybird Syndicate - NV 14514-AU19-AA GRIZ H 2 14:24:38.50 1182.552 00:13:40 Yes
74 3 Guys Entry - NV 0368-AU19-WOC BB H 3 14:25:17.30 1176.682 00:14:19 Yes
75 Boek/Hansen - CA 2101-AU19-LAKE BB H 1 14:26:30.20 1165.811 00:15:31 Yes
76 Wing And Prayer Syndicate - CA 90880-AU19-SOC RC H 1 14:37:11.50 1078.178 00:26:13 Yes
77 Danny Lum - HI 0087-IF19-FSC BB H 2 14:37:12.40 1078.065 00:26:14 Yes
78 Partridge Family Loft - CA 1710-AU19-PASO BC H 2 14:52:34.40 972.931 00:41:36 Yes
79 Drama Queen Loft - TX 0995-AU19-GCI BB H 2 14:52:41.40 972.211 00:41:43 Yes
80 Burrill Family Loft - TX 18359-AU19-AA TEXAS HURRICANE II BB H 2 15:00:31.20 926.220 00:49:33 Yes
81 Quejado/Majelien - CA 0932-AU19-QUEJ PH-1 ARBERT-MAJED BCP H 3 15:30:54.20 782.570 01:19:55 Yes
82 Beto's Loft - CA 90272-AU19-SOC BC H 2 16:00:42.30 679.241 01:49:44 Yes
83 Dennis Doyle - TX 2036-AU19-LYND WEGGE/KLAAS II BB H 2 16:59:35.20 538.704 02:48:36 Yes

There are 113 bird records

Note: These Race Results are unofficial and subject to change until verified by the Race Committee and declared final.